| time (UTC) | temp C | wind direction | speed KPH | gust KPH | rain 1hr cm | rain 24hr cm | rain mn cm | humidity % | barometer mb |
| 20260831072403 | 24 | 295 | 8.0 | 9.7 | 0.00 | 0.00 | 0.00 | 96 | 1013.4 |
| 20260831071203 | 24 | 245 | 4.8 | 8.0 | 0.00 | 0.00 | 0.00 | 95 | 1013.6 |
| 20260831070002 | 24 | 251 | 3.2 | 4.8 | 0.00 | 0.00 | 0.00 | 95 | 1013.5 |
| 20260831064804 | 24 | 238 | 4.8 | 8.0 | 0.00 | 0.00 | 0.00 | 95 | 1013.7 |
| 20260831063603 | 24 | 205 | 3.2 | 8.0 | 0.00 | 0.00 | 0.00 | 94 | 1013.5 |
| 20260831062403 | 24 | 241 | 3.2 | 4.8 | 0.00 | 0.00 | 0.00 | 94 | 1013.3 |
| 20260831061204 | 25 | 207 | 4.8 | 8.0 | 0.00 | 0.00 | 0.00 | 94 | 1013.5 |
| 20260831060002 | 25 | 296 | 4.8 | 9.7 | 0.00 | 0.00 | 0.00 | 93 | 1013.5 |
| 20260831054802 | 25 | 308 | 3.2 | 4.8 | 0.00 | 0.00 | 0.00 | 93 | 1013.1 |
| 20260831053603 | 25 | 339 | 1.6 | 3.2 | 0.00 | 0.00 | 0.00 | 93 | 1013.3 |
| 20260831052403 | 25 | 5 | 1.6 | 3.2 | 0.00 | 0.00 | 0.00 | 92 | 1013.4 |
| 20260831051204 | 25 | 346 | 1.6 | 3.2 | 0.00 | 0.00 | 0.00 | 91 | 1013.4 |
| 20260831050003 | 25 | 7 | 3.2 | 8.0 | 0.00 | 0.00 | 0.00 | 91 | 1013.4 |
| 20260831044802 | 25 | 8 | 4.8 | 9.7 | 0.00 | 0.00 | 0.00 | 90 | 1013.5 |
| 20260831043602 | 26 | 24 | 4.8 | 9.7 | 0.00 | 0.00 | 0.00 | 89 | 1013.6 |
| 20260831042402 | 26 | 30 | 8.0 | 11.3 | 0.00 | 0.00 | 0.00 | 87 | 1013.1 |
| 20260831041202 | 26 | 68 | 3.2 | 4.8 | 0.00 | 0.00 | 0.00 | 86 | 1013.4 |
| 20260831040002 | 26 | 268 | 3.2 | 4.8 | 0.00 | 0.00 | 0.00 | 85 | 1013.3 |
| 20260831034800 | 26 | 340 | 3.2 | 8.0 | 0.00 | 0.00 | 0.00 | 85 | 1013.4 |
| 20260831033602 | 25 | 301 | 3.2 | 3.2 | 0.00 | 0.00 | 0.00 | 89 | 1013.3 |
| 20260831032402 | 25 | 321 | 3.2 | 4.8 | 0.00 | 0.00 | 0.00 | 89 | 1013.7 |
| 20260831031202 | 25 | 348 | 3.2 | 4.8 | 0.00 | 0.00 | 0.00 | 89 | 1013.6 |
| 20260831030001 | 24 | 312 | 3.2 | 4.8 | 0.00 | 0.00 | 0.00 | 89 | 1013.9 |
| 20260831024802 | 25 | 226 | 0.0 | 0.0 | 0.00 | 0.00 | 0.00 | 88 | 1013.8 |
| 20260831023603 | 24 | 290 | 3.2 | 4.8 | 0.00 | 0.00 | 0.00 | 91 | 1014.0 |
| 20260831022403 | 23 | 265 | 3.2 | 4.8 | 0.00 | 0.00 | 0.00 | 94 | 1014.1 |
| 20260831021202 | 23 | 227 | 3.2 | 4.8 | 0.00 | 0.00 | 0.00 | 95 | 1014.3 |
| 20260831020001 | 23 | 200 | 4.8 | 8.0 | 0.00 | 0.00 | 0.00 | 95 | 1014.2 |
| 20260831014801 | 23 | 213 | 4.8 | 8.0 | 0.00 | 0.00 | 0.00 | 95 | 1014.4 |
| 20260831013603 | 23 | 267 | 3.2 | 4.8 | 0.00 | 0.00 | 0.00 | 95 | 1014.2 |
| 20260831012402 | 23 | 324 | 0.0 | 1.6 | 0.00 | 0.00 | 0.00 | 96 | 1014.2 |
| 20260831011202 | 23 | 337 | 3.2 | 4.8 | 0.00 | 0.00 | 0.00 | 97 | 1014.3 |
| 20260831010003 | 23 | 286 | 4.8 | 8.0 | 0.00 | 0.00 | 0.00 | 97 | 1014.0 |
| 20260831004802 | 23 | 284 | 3.2 | 4.8 | 0.00 | 0.00 | 0.00 | 96 | 1013.9 |
| 20260831003604 | 23 | 301 | 4.8 | 8.0 | 0.00 | 0.00 | 0.00 | 96 | 1013.5 |
| 20260831002403 | 23 | 289 | 4.8 | 4.8 | 0.00 | 0.00 | 0.00 | 95 | 1014.0 |
| 20260831001203 | 23 | 222 | 1.6 | 3.2 | 0.00 | 0.00 | 0.00 | 95 | 1013.5 |
| 20260831000004 | 23 | 357 | 0.0 | 0.0 | 0.00 | 0.00 | 0.00 | 94 | 1013.5 |
| 20260830234804 | 23 | 288 | 1.6 | 3.2 | 0.00 | 0.00 | 0.00 | 96 | 1013.5 |
| 20260830233605 | 22 | 138 | 3.2 | 4.8 | 0.00 | 0.00 | 0.00 | 98 | 1013.1 |
| 20260830232404 | 22 | 125 | 1.6 | 3.2 | 0.00 | 0.00 | 0.00 | 99 | 1013.3 |
| 20260830231204 | 22 | 53 | 0.0 | 0.0 | 0.00 | 0.00 | 0.00 | 99 | 1013.6 |
| 20260830230003 | 22 | 39 | 0.0 | 1.6 | 0.00 | 0.00 | 0.00 | 99 | 1013.2 |
| 20260830224803 | 22 | 29 | 1.6 | 4.8 | 0.00 | 0.00 | 0.00 | 99 | 1013.0 |
| 20260830223604 | 22 | 32 | 3.2 | 8.0 | 0.00 | 0.00 | 0.00 | 99 | 1013.2 |
| 20260830222404 | 22 | 33 | 1.6 | 4.8 | 0.00 | 0.00 | 0.00 | 99 | 1013.0 |
| 20260830221205 | 22 | 33 | 3.2 | 4.8 | 0.00 | 0.00 | 0.00 | 99 | 1013.2 |
| 20260830220004 | 22 | 189 | 0.0 | 0.0 | 0.00 | 0.00 | 0.00 | 99 | 1012.8 |
| 20260830214804 | 21 | 189 | 0.0 | 1.6 | 0.00 | 0.00 | 0.00 | 99 | 1012.7 |
| 20260830213604 | 21 | 189 | 1.6 | 3.2 | 0.00 | 0.00 | 0.00 | 99 | 1012.6 |
| 20260830212404 | 21 | 189 | 0.0 | 0.0 | 0.00 | 0.00 | 0.00 | 99 | 1012.8 |
| 20260830211203 | 21 | 189 | 0.0 | 0.0 | 0.00 | 0.00 | 0.00 | 99 | 1012.5 |
| 20260830210003 | 20 | 188 | 1.6 | 3.2 | 0.00 | 0.00 | 0.00 | 99 | 1012.6 |
| 20260830204804 | 20 | 183 | 1.6 | 1.6 | 0.00 | 0.00 | 0.00 | 99 | 1012.5 |
| 20260830203603 | 20 | 168 | 1.6 | 1.6 | 0.00 | 0.00 | 0.00 | 99 | 1012.2 |
| 20260830202403 | 20 | 168 | 0.0 | 0.0 | 0.00 | 0.00 | 0.00 | 99 | 1012.2 |
| 20260830201202 | 20 | 158 | 1.6 | 3.2 | 0.00 | 0.00 | 0.00 | 99 | 1012.0 |
| 20260830200004 | 20 | 98 | 0.0 | 0.0 | 0.00 | 0.00 | 0.00 | 99 | 1011.9 |
| 20260830194803 | 20 | 130 | 0.0 | 3.2 | 0.00 | 0.00 | 0.00 | 99 | 1011.5 |
| 20260830193604 | 20 | 35 | 0.0 | 0.0 | 0.00 | 0.00 | 0.00 | 99 | 1011.5 |
| 20260830192404 | 21 | 39 | 0.0 | 0.0 | 0.00 | 0.00 | 0.00 | 99 | 1011.3 |
| 20260830191203 | 20 | 137 | 0.0 | 0.0 | 0.00 | 0.00 | 0.00 | 99 | 1011.1 |
| 20260830190004 | 21 | 128 | 0.0 | 0.0 | 0.00 | 0.00 | 0.00 | 99 | 1011.3 |
| 20260830184804 | 21 | 299 | 0.0 | 0.0 | 0.00 | 0.00 | 0.00 | 99 | 1011.1 |
| 20260830183603 | 21 | 299 | 0.0 | 0.0 | 0.00 | 0.00 | 0.00 | 99 | 1010.9 |
| 20260830182404 | 21 | 299 | 0.0 | 1.6 | 0.00 | 0.00 | 0.00 | 99 | 1010.7 |
| 20260830181203 | 21 | 299 | 1.6 | 3.2 | 0.00 | 0.00 | 0.00 | 99 | 1011.1 |
| 20260830180003 | 21 | 299 | 0.0 | 0.0 | 0.00 | 0.00 | 0.00 | 99 | 1011.4 |
| 20260830174802 | 21 | 299 | 0.0 | 1.6 | 0.00 | 0.00 | 0.00 | 99 | 1011.3 |
| 20260830173603 | 21 | 299 | 1.6 | 1.6 | 0.00 | 0.00 | 0.00 | 99 | 1011.0 |
| 20260830172403 | 21 | 299 | 0.0 | 0.0 | 0.00 | 0.00 | 0.00 | 99 | 1010.9 |
| 20260830171204 | 21 | 299 | 0.0 | 1.6 | 0.00 | 0.00 | 0.00 | 99 | 1010.8 |
| 20260830170004 | 21 | 299 | 1.6 | 1.6 | 0.00 | 0.00 | 0.00 | 99 | 1010.9 |
| 20260830164804 | 21 | 299 | 0.0 | 1.6 | 0.00 | 0.00 | 0.00 | 99 | 1011.0 |
| 20260830163604 | 21 | 300 | 3.2 | 4.8 | 0.00 | 0.00 | 0.00 | 99 | 1010.9 |
| 20260830162403 | 21 | 302 | 3.2 | 3.2 | 0.00 | 0.00 | 0.00 | 99 | 1011.0 |
| 20260830161203 | 21 | 302 | 3.2 | 4.8 | 0.00 | 0.00 | 0.00 | 99 | 1010.7 |
| 20260830160003 | 21 | 304 | 1.6 | 3.2 | 0.00 | 0.00 | 0.00 | 99 | 1010.7 |
| 20260830154803 | 21 | 304 | 3.2 | 3.2 | 0.00 | 0.00 | 0.00 | 99 | 1010.8 |
| 20260830153604 | 21 | 306 | 1.6 | 3.2 | 0.00 | 0.00 | 0.00 | 99 | 1010.9 |
| 20260830152403 | 21 | 307 | 3.2 | 3.2 | 0.00 | 0.00 | 0.00 | 99 | 1011.0 |
| 20260830151203 | 21 | 304 | 3.2 | 3.2 | 0.00 | 0.00 | 0.00 | 99 | 1010.8 |
| 20260830150004 | 21 | 307 | 1.6 | 3.2 | 0.00 | 0.00 | 0.00 | 99 | 1010.9 |
| 20260830144803 | 21 | 310 | 0.0 | 0.0 | 0.00 | 0.00 | 0.00 | 99 | 1011.1 |
| 20260830143602 | 21 | 311 | 1.6 | 3.2 | 0.00 | 0.03 | 0.00 | 99 | 1011.2 |
| 20260830142403 | 21 | 312 | 1.6 | 3.2 | 0.00 | 0.03 | 0.00 | 99 | 1011.1 |
| 20260830141204 | 21 | 313 | 0.0 | 1.6 | 0.00 | 0.03 | 0.00 | 99 | 1010.9 |
| 20260830140003 | 21 | 313 | 1.6 | 1.6 | 0.00 | 0.03 | 0.00 | 99 | 1010.9 |
| 20260830134803 | 21 | 313 | 0.0 | 1.6 | 0.00 | 0.03 | 0.00 | 99 | 1010.9 |
| 20260830133604 | 21 | 313 | 1.6 | 3.2 | 0.00 | 0.03 | 0.00 | 99 | 1010.9 |
| 20260830132403 | 21 | 316 | 1.6 | 3.2 | 0.00 | 0.03 | 0.00 | 99 | 1010.7 |
| 20260830131204 | 21 | 316 | 1.6 | 1.6 | 0.00 | 0.03 | 0.00 | 99 | 1010.8 |
| 20260830130003 | 21 | 316 | 1.6 | 3.2 | 0.00 | 0.03 | 0.00 | 99 | 1010.6 |
| 20260830124804 | 21 | 316 | 0.0 | 0.0 | 0.00 | 0.03 | 0.00 | 99 | 1010.7 |
| 20260830123602 | 21 | 320 | 1.6 | 3.2 | 0.00 | 0.03 | 0.00 | 99 | 1011.2 |
| 20260830122404 | 21 | 341 | 0.0 | 0.0 | 0.00 | 0.03 | 0.00 | 99 | 1011.0 |
| 20260830121204 | 22 | 49 | 0.0 | 0.0 | 0.00 | 0.03 | 0.00 | 99 | 1011.0 |
| 20260830120003 | 22 | 49 | 0.0 | 0.0 | 0.00 | 0.03 | 0.00 | 99 | 1010.7 |
| 20260830114804 | 21 | 107 | 0.0 | 0.0 | 0.00 | 0.03 | 0.00 | 99 | 1010.6 |
| 20260830113603 | 21 | 49 | 0.0 | 0.0 | 0.00 | 0.03 | 0.00 | 99 | 1010.5 |
| 20260830112402 | 21 | 48 | 1.6 | 1.6 | 0.00 | 0.03 | 0.00 | 99 | 1010.3 |
| 20260830111204 | 22 | 49 | 0.0 | 0.0 | 0.00 | 0.03 | 0.00 | 99 | 1010.1 |
| 20260830110002 | 22 | 70 | 0.0 | 0.0 | 0.00 | 0.03 | 0.00 | 99 | 1010.2 |
| 20260830104803 | 22 | 87 | 0.0 | 0.0 | 0.00 | 0.03 | 0.00 | 99 | 1009.8 |
| 20260830103604 | 22 | 66 | 1.6 | 1.6 | 0.00 | 0.03 | 0.00 | 99 | 1009.8 |
| 20260830102402 | 22 | 64 | 0.0 | 0.0 | 0.00 | 0.03 | 0.00 | 99 | 1009.6 |
| 20260830101203 | 22 | 119 | 0.0 | 0.0 | 0.00 | 0.03 | 0.00 | 99 | 1009.2 |
| 20260830100003 | 22 | 118 | 1.6 | 3.2 | 0.00 | 0.03 | 0.00 | 99 | 1009.3 |
| 20260830094803 | 22 | 79 | 0.0 | 0.0 | 0.00 | 0.03 | 0.00 | 99 | 1009.5 |
| 20260830093603 | 22 | 44 | 4.8 | 4.8 | 0.00 | 0.03 | 0.00 | 98 | 1009.1 |
| 20260830092404 | 22 | 46 | 3.2 | 8.0 | 0.00 | 0.03 | 0.00 | 98 | 1009.4 |
| 20260830091202 | 22 | 33 | 4.8 | 8.0 | 0.00 | 0.03 | 0.00 | 97 | 1009.3 |
| 20260830090004 | 22 | 52 | 3.2 | 9.7 | 0.00 | 0.03 | 0.00 | 97 | 1009.2 |
| 20260830084803 | 22 | 41 | 3.2 | 4.8 | 0.00 | 0.03 | 0.00 | 97 | 1009.1 |
| 20260830083603 | 22 | 52 | 3.2 | 4.8 | 0.00 | 0.05 | 0.00 | 96 | 1009.1 |
| 20260830082404 | 23 | 39 | 9.7 | 12.9 | 0.00 | 0.05 | 0.00 | 95 | 1008.9 |
| 20260830081203 | 23 | 147 | 0.0 | 0.0 | 0.00 | 0.05 | 0.00 | 96 | 1008.7 |
| 20260830080002 | 23 | 144 | 1.6 | 3.2 | 0.00 | 0.05 | 0.00 | 95 | 1008.7 |
| 20260830074802 | 23 | 128 | 0.0 | 0.0 | 0.00 | 0.05 | 0.00 | 92 | 1008.5 |
| 20260830073602 | 23 | 17 | 0.0 | 0.0 | 0.00 | 0.05 | 0.00 | 91 | 1008.6 |